Location: Audinghen
(50.8518°N, 1.6129°E)
Time: 21:15:19
(UTC+00:00)

Uosat 12 SS-18 rocket - Pass Details

Date: 07 August 2020
Orbit: 602 x 1382 km, 64.6° (Epoch: 22 September)

Event Time Altitude Azimuth Distance (km) Brightness Sun altitude
Exits shadow 02:33:30 22° 238° (WSW) 1,511 5.5 -14.8°
Maximum altitude 02:36:34 64° 315° (NW) 731 4.4 -14.5°
Drops below altitude 10° 02:40:57 10° 38° (NE) 1,989 8.1 -14.1°
Sets 02:43:08 0° 41° (NE) 2,872 9.5 -13.9°
